COSMOS 1275 DEB, 17616

Orbit data source: Space-Track

COSMOS 1275 DEB, 17616 is space debris in LEO originally from a launch on Thu, 04 Jun 1981 UTC launched from the Plesetsk Missile And Space Complex (PKMTR). Debris objects in space refer to the collection of defunct objects orbiting the Earth. Examples of debris include non-operational satellites, rocket bodies, and fragments generated from explosions, collisions, or faulty payload assembly.

Loading next visibility...
Identifier
17616, 1981-053KK
Orbit
LEO
Country
Flag of CISCIS
Related business
Manufacturer
Unknown
Mission
Spacecraft
Bus & Motor
Unknown
Mass
Unknown
Launch date (UTC)
1981-06-04 (44 years ago)
Launch vehicle
Unknown
Launch site
Plesetsk Missile And Space Complex (PKMTR)
Object type
Payload
Rocket body
Debris
Shape & HBR
Unknown shape, 0.1 m
Radar Cross Section
Small (<0.1 m²)

Expand to show TLE details & history
Last TLE update: 15 hours ago

TLE from 15 hours ago
0 COSMOS 1275 DEB
1 17616U 81053KK  25288.92048802  .00001598  00000-0  17248-2 0  9993
2 17616  83.0454 173.2615 0117430 103.5809 274.5303 13.69725612  8727
Epoch: 2025-10-15T22:05Z
TLE epoch observation values (Epoch: 2025-10-15T22:05:30.164Z)
Latitude
16.62557°
Longitude
179.2747°
Altitude
996.987 km
Speed
7.357 km/s
True Right ascension
11h 41m 21s
True Declination
16° 32' 05"
Sunlit
Object was in daylight at epoch
Visualization orbit readout
Latitude
Unknown
Longitude
Unknown
Altitude
Unknown
Speed
Unknown
Apparent Right ascension
Unknown
Apparent Declination
Unknown
Sunlit
N/A
Visualization observer readout
Local Sidereal Time
07:40:26
Azimuth
Unknown
Elevation
Unknown
Doppler factor
Unknown
Orbital elements
Apogee altitude
1,084.322 km
Perigee altitude
911.093 km
Semi-major axis
7,375.845 km
Eccentricity
0.01174
Inclination
83.0454°
RAAN
173.2615°
Arg. of periapsis
103.5809°
True anomaly
273.18742°
Mean anomaly
274.5303°
Eccentric anomaly
273.859°
Mean motion
3.4263 °/min
Orbital period
105.07 mins
BSTAR
0.0017248
Loading maneuver chart data...
Computing Atmospheric mass density...

Documentation

Showing up to 5 results
|